Regional Weather Roundup
Issued by NWS Newport/Morehead, NC

Current Version | Previous Version | Text Only | Print | Product List | Glossary On
Versions: 1 2 3 4 5 6 7 8 9 10 11 12 13 14 15 16 17 18 19 20 21 22 23 24 25 26 27 28 29 30 31 32 33 34 35 36 37 38 39 40 41 42 43 44 45 46 47 48 49 50
000
ASUS42 KMHX 251722
RWRMHX
WEATHER ROUNDUP FOR EASTERN NORTH CAROLINA
NATIONAL WEATHER SERVICE NEWPORT/MOREHEAD CITY NC
100 PM EDT SAT OCT 25 2014

NOTE: "FAIR" INDICATES FEW OR NO CLOUDS BELOW 12,000 FEET
WITH NO SIGNIFICANT WEATHER AND/OR OBSTRUCTIONS TO VISIBILITY

NCZ015>017-031-032-045>047-102-103-251800-
NORTH COAST

CITY           SKY/WX    TMP DP  RH WIND       PRES   REMARKS
EDENTON        SUNNY     67  50  54 SW5       29.95F
ELIZABETH CITY SUNNY     70  45  40 NE3       29.95F
KITTY HAWK     SUNNY     67  47  48 W6        29.92F
MANTEO         SUNNY     65  49  56 N7        29.95F

$$

NCZ045>047-081-094-103-104-251800-
CENTRAL COAST

CITY           SKY/WX    TMP DP  RH WIND       PRES   REMARKS
FRISCO         SUNNY     65  55  70 N7        29.95F
SWANQUARTER      N/A     68 N/A N/A SW6       29.91S

$$

NCZ095-097-098-100-101-251800-
SOUTHERN COAST

CITY           SKY/WX    TMP DP  RH WIND       PRES   REMARKS
BEAUFORT       SUNNY     71  48  43 NW5       29.96F
CEDAR ISLAND     N/A     64 N/A N/A NW5       30.00S
JACKSONVILLE   SUNNY     69  46  43 VRB3      29.97F
PINEY ISLAND   SUNNY     70  46  42 NE7       29.96F
WILMINGTON     SUNNY     72  41  32 N8        29.97F


$$

NCZ011>013-027>030-043-044-078>080-089-090>093-098-251800-
COASTAL PLAIN

CITY           SKY/WX    TMP DP  RH WIND       PRES   REMARKS
AHOSKIE        SUNNY     66  42  40 NW3       29.96F
CLINTON        SUNNY     69  48  46 NW7       29.97F
ELIZABETHTOWN  SUNNY     69  46  43 NW5       29.97F
GOLDSBORO      SUNNY     68  48  48 VRB1      29.96F
GREENVILLE     SUNNY     68  43  40 CALM      29.98F
HAVELOCK       SUNNY     71  45  39 CALM      29.98F
KENANSVILLE      N/A     69  45  42 CALM      29.97F
KINSTON        SUNNY     68  45  42 CALM      29.97F
NEW BERN       SUNNY     71  46  40 CALM      29.98F
RICHLANDS      SUNNY     70  45  40 CALM      29.96F
ROCKY MOUNT    SUNNY     67  43  41 NW5       29.98F
WASHINGTON     SUNNY     68  46  45 CALM      29.95F
WHITEVILLE     SUNNY     71  45  39 NW5       29.97F

$$

AMZ130-135-150-152-154-156-158-170-250-252-270-ANZ085-086-088-633-658-670-251800-
MARINE OBSERVATIONS

STATION/POSITION TIME  TEMP    WIND        PRES    WAVE   SWELL
                       AIR SEA DIR/SP/G            HT/PER HT/PER
                 (UTC) (F)     (DEG/KT/KT) (MB)    (FT/S) (FT/S)
CHESAPEAKE LIGHT 1700   62     340/  8/  8 1014.5
64 E VA BEACH    1700   62 66  330/ 10/ 12 1013.2    3/ 5   3/ 5
DUCK             1700   63 66   10/  7/  8 1013.2
2 E DUCK         1700                        N/A     3/ 5   2/11
10 NE DUCK       1700      68                N/A     3/ 9   2/11
OREGON INLET     1700   66 63  290/  6/  9 1013.8
13E OREGON INLT  1700      69                N/A     4/ 9   2/11
HATTERAS CG      1700   63 65  330/  6/  7 1014.5
DIAMOND BUOY     1700   66     320/  8/ 10 1014.4    3/ 8   3/ 8
17 S OCRACOKE    1600          VRB  6/  8  1014.8
CAPE LOOKOUT     1700   68     290/  2/  4 1014.5
BEAUFORT LAB     1700   68 67   10/  3/  4 1013.8
30 SE NEW RIVER  1700   65 74  350/  6/  8 1014.6    3/10   2/10
5 SE WRIGHTSVLE  1700   67 72  170/  2/  4   N/A
225 S CAPE HAT   1553   72 77   20/ 10/ 14 1013.4    4/ 9   3/ 9
41 SE CHARLESTON 1700   68 78  340/  8/ 10 1015.3    3/ 9   3/ 9

$$



USA.gov is the U.S. government's official web portal to all federal, state and local government web resources and services.